User: anonymous   Login
Location: *
(40.4270°N, 9.4940°E)
Time: 22:42:06
(UTC+02:00)
Language:

ATLAS 5 CENTAUR R/B - Orbit

View from above orbital plane
View from above orbital plane
View from above satellite
View from above satellite

Ground track
Ground track

The orbit data is extracted from the following two-line orbital elements,

1 31702U 07027B   17119.81285807 0.00000180  00000-0  60387-4 0    07
2 31702  63.3682   3.8371 0269315   3.2233 356.7767 14.18563813    05
Epoch (UTC): 29 April 2017 19:30:30
Eccentricity: 0.0269315
inclination: 63.3682°
perigee height: 636 km
apogee height: 1024 km
right ascension of ascending node: 3.8371°
argument of perigee: 3.2233°
revolutions per day: 14.18563813
mean anomaly at epoch: 356.7767°
orbit number at epoch: 0

The dashed part of the orbit path shows where the satellite is in the earth's shadow,  

DLR